Wind_Speed
6 5 4 4 3 2 2 1 1 2 2 2 3 3 2 1 2 4 5 6 7 4 2 3 7 10 14 14 10 7 3 6 4 4 11 5 7 6 2 2 6 3 4 8 7
8 7 7 6 6 5 5 4 3 3 2 2 3 4 5 5 2 1 1 3 5 5 3 5 9 12 13 16 11 7 4 2 11 12 9 3 5 4 7 5 6 2 4 4 5
9 8 8 8 8 7 7 6 6 5 4 4 4 4 5 5 5 5 3 0 2 4 2 5 9 17 16 16 10 4 3 7 14 15 3 7 9 9 6 4 3 5 4 4 5
10 9 9 10 9 9 9 8 8 7 6 5 5 4 4 5 3 5 4 2 1 2 2 1 7 15 18 14 8 7 11 18 15 11 12 8 11 8 5 6 3 4 4 4 5
11 11 11 10 10 10 10 10 10 9 8 8 7 6 5 6 5 4 3 3 3 3 1 2 6 10 16 17 12 12 9 11 21 14 11 15 12 7 5 3 3 2 1 6 6
12 12 12 11 12 11 11 11 11 10 10 10 9 9 8 6 6 5 5 4 4 5 4 4 6 9 17 15 7 7 9 9 14 10 12 12 11 9 10 6 4 1 2 3 6
13 13 13 13 13 13 12 12 13 12 11 11 11 10 11 9 6 8 7 6 5 6 6 7 11 9 10 8 9 5 7 5 7 9 15 11 12 16 9 6 1 5 2 7 4
14 14 13 13 13 13 13 13 13 13 13 12 12 10 11 11 8 9 8 8 7 7 7 12 13 11 10 8 8 7 6 8 10 16 18 15 16 15 10 12 8 10 10 12 17
13 13 12 11 13 12 13 13 13 14 14 13 12 11 12 8 9 12 10 10 10 10 8 9 9 11 10 10 7 5 6 7 17 13 19 18 7 7 15 14 12 18 21 6 16
13 11 11 11 11 11 12 12 13 14 14 14 13 11 11 7 9 11 12 13 12 14 9 8 10 10 10 10 3 1 2 14 20 12 11 15 13 12 18 21 23 21 22 8 6
11 11 11 11 10 9 11 11 12 15 16 15 14 16 12 9 10 6 9 13 14 12 10 10 12 10 5 8 6 11 18 25 12 13 14 10 13 10 16 31 29 21 11 10 10
12 12 12 11 11 9 11 12 11 16 16 16 17 16 19 13 11 7 10 13 13 12 9 11 12 2 0 6 10 12 19 17 15 15 15 19 17 20 21 26 24 13 8 6 17
16 14 14 13 12 11 15 16 11 16 19 14 18 18 20 16 14 10 9 10 13 14 13 15 7 3 4 3 7 13 16 14 15 21 19 12 16 16 21 18 20 13 5 3 12
18 17 15 14 15 16 17 13 11 14 12 16 14 21 24 20 22 16 13 9 13 12 7 13 12 10 7 10 11 16 12 15 18 16 8 5 5 7 12 17 20 12 8 9 16
20 19 18 16 17 18 18 10 8 7 3 5 8 10 18 29 12 10 14 19 17 12 16 15 9 6 12 10 11 21 13 15 17 17 14 17 13 10 8 14 15 9 3 11 10
19 19 18 17 18 21 18 12 11 6 7 3 9 9 15 20 18 12 9 22 20 16 17 23 16 19 14 14 18 15 20 19 16 10 8 13 10 10 15 13 12 10 5 3 9
19 19 18 16 17 16 15 14 9 7 6 3 10 14 10 9 11 18 21 25 26 17 23 24 27 21 21 23 17 16 15 6 5 3 8 14 10 10 9 8 12 10 1 2 3
19 18 17 17 17 14 15 19 10 8 15 4 4 17 20 14 15 17 20 26 26 26 21 13 14 22 16 22 21 15 16 12 5 3 8 23 5 4 9 7 10 9 5 5 4
18 18 16 19 18 18 19 23 15 10 6 9 5 5 14 24 18 17 24 27 25 23 28 11 21 9 16 13 22 26 21 13 23 16 4 7 2 3 3 21 5 5 10 7 1
13 14 16 19 19 22 23 27 20 18 9 6 2 1 9 1 18 19 24 29 32 29 25 21 26 21 18 18 21 31 12 8 7 2 4 3 5 6 14 13 11 14 11 10 5
8 10 14 17 21 25 28 28 23 19 13 7 9 9 8 12 8 6 4 13 20 30 28 26 24 25 22 15 8 26 25 14 15 8 6 2 3 15 13 13 10 16 12 11 8
7 14 10 11 19 27 30 29 23 20 19 17 12 10 11 16 17 10 9 7 13 25 33 26 20 29 27 19 19 13 29 23 18 14 5 3 4 9 10 12 15 13 15 12 14
11 15 13 8 13 13 15 17 19 20 15 20 12 5 3 15 12 9 15 14 6 2 17 26 38 28 26 22 19 17 16 23 20 19 22 9 7 17 12 14 13 14 17 20 17
19 15 19 16 8 6 11 15 17 14 13 16 16 12 10 15 12 15 21 11 4 7 3 11 27 31 27 19 9 11 10 12 19 22 22 26 18 20 19 23 20 16 9 16 21
17 21 20 19 23 24 18 13 16 19 19 12 18 17 14 20 20 18 21 19 14 6 3 9 8 14 17 13 14 14 14 15 16 19 17 18 23 17 21 26 23 18 12 20 14
11 22 22 14 12 13 15 10 10 16 18 20 12 15 19 24 24 16 17 13 14 14 7 5 6 11 13 16 13 15 13 13 15 17 36 24 16 16 23 25 13 11 5 7 25
12 14 21 18 16 11 14 16 15 16 20 19 16 12 15 22 25 24 17 20 15 14 10 10 8 9 11 16 19 15 12 7 13 6 14 11 17 20 29 18 6 3 4 10 17
Wind_Direction
227 226 232 237 241 244 261 262 343 318 310 278 255 243 241 265 32 32 35 36 44 56 105 137 158 158 156 145 153 156 127 111 44 170 116 46 229 246 293 336 351 75 95 66 81
231 230 230 234 239 243 252 260 252 260 276 272 263 252 241 243 238 276 11 39 35 43 104 150 156 155 164 153 155 175 221 221 8 355 337 285 297 253 255 280 303 45 143 98 118
239 240 243 243 243 246 250 254 257 250 244 249 254 255 247 238 234 238 245 196 45 45 82 161 175 166 166 162 171 176 245 319 315 331 29 320 210 252 193 293 148 57 77 98 114
243 246 246 249 249 249 249 250 252 251 246 241 243 244 243 229 202 201 209 219 184 74 54 169 191 171 173 164 174 249 267 294 300 290 301 298 283 196 290 287 283 43 88 72 105
246 248 249 249 250 250 252 250 250 250 247 243 241 237 234 234 209 216 186 192 208 199 175 226 215 163 165 168 199 229 301 318 323 294 292 302 278 238 276 266 200 353 137 146 138
242 249 252 252 254 252 252 253 254 250 250 245 239 237 237 234 222 208 207 209 219 222 216 205 210 161 164 186 228 265 279 315 315 295 298 275 257 247 254 212 239 253 334 263 141
241 243 247 252 254 254 254 253 255 253 250 251 245 235 236 224 219 219 209 214 222 227 226 216 211 204 200 204 221 237 290 296 289 272 294 271 224 260 243 193 283 127 151 279 285
244 246 247 251 254 255 255 256 253 253 250 247 246 242 241 235 219 229 213 222 226 224 222 231 223 223 237 256 222 247 275 317 330 286 272 275 271 245 224 170 176 216 172 247 239
242 244 248 250 251 253 254 255 254 252 250 246 242 239 239 240 225 211 224 230 224 233 228 229 235 242 233 255 249 220 283 303 333 333 264 256 237 193 205 186 279 245 214 281 242
231 236 240 243 244 248 251 253 254 253 251 251 245 238 229 230 225 215 220 232 233 225 229 246 252 256 245 221 225 190 206 308 297 323 324 215 225 234 212 207 261 259 238 336 262
233 232 233 236 235 244 253 254 259 258 250 244 241 222 221 215 232 224 225 232 238 233 242 249 250 248 271 247 247 296 302 298 293 308 284 232 228 263 237 218 250 256 272 306 223
240 234 234 237 243 241 256 256 261 265 257 251 242 232 224 227 222 221 224 230 237 238 236 245 256 171 329 232 262 284 297 300 300 298 290 288 263 266 231 219 252 262 245 268 160
243 237 232 234 240 243 247 256 260 275 281 232 249 239 221 240 245 232 246 244 245 247 244 243 150 164 307 269 272 269 285 288 290 304 299 286 288 253 249 223 233 228 238 286 299
245 242 235 236 238 243 249 261 267 269 286 282 258 249 218 221 244 243 239 247 243 255 243 263 247 229 224 273 277 283 283 272 298 316 314 334 264 286 245 233 236 245 270 277 301
251 249 245 238 245 247 253 243 244 261 322 276 230 224 219 219 246 239 237 238 245 262 232 243 255 248 266 264 268 268 285 299 289 303 295 298 303 300 273 225 239 256 216 300 290
250 248 246 240 241 243 245 238 229 221 249 191 208 209 189 214 223 211 226 235 254 260 256 251 243 255 262 276 275 273 269 279 293 308 318 300 302 281 266 248 216 206 207 302 296
247 241 236 230 229 233 232 216 195 211 214 215 224 224 229 243 254 215 240 224 225 228 250 252 246 239 249 266 261 250 274 275 328 334 234 303 293 291 256 190 214 196 242 315 255
253 245 236 225 228 227 212 196 208 224 208 199 275 213 220 236 248 227 227 223 229 238 258 268 280 228 213 235 248 258 250 228 201 212 268 306 264 185 135 190 185 184 258 270 195
257 249 236 227 221 217 208 196 213 205 216 273 248 216 242 236 241 206 218 224 233 234 231 240 259 240 226 243 281 254 248 253 250 257 290 283 212 224 186 216 213 251 240 265 6
259 245 225 222 214 212 207 217 221 209 221 263 318 307 339 283 237 234 228 226 237 239 247 254 259 237 242 284 304 235 250 237 226 188 285 301 190 184 130 150 208 221 227 224 237
247 209 212 205 205 211 212 220 228 221 237 253 224 282 298 316 301 317 218 241 257 242 243 246 247 260 268 278 288 215 226 238 234 240 172 213 237 177 183 267 223 201 213 248 259
206 175 173 188 206 214 221 225 231 233 228 249 255 267 285 296 298 305 275 273 308 236 233 233 235 249 265 274 289 288 231 232 235 235 220 212 177 185 204 207 198 212 228 233 221
172 175 161 192 211 226 230 241 249 249 242 230 230 220 287 291 298 277 246 228 31 302 239 240 231 237 262 266 284 272 251 229 243 251 254 230 236 214 220 230 199 208 236 224 239
164 161 180 204 225 260 244 240 233 214 235 217 245 247 266 252 255 268 240 249 262 359 58 232 224 223 221 249 283 311 291 270 274 253 262 245 259 209 194 181 201 242 227 224 256
191 178 177 206 225 239 248 257 245 244 231 235 232 241 259 266 253 250 250 265 253 286 235 279 211 185 203 210 236 274 317 296 302 276 264 276 254 227 212 198 215 235 239 289 267
224 197 195 205 202 226 234 253 267 255 255 217 267 239 250 256 248 251 241 265 282 268 277 316 279 266 236 219 249 262 290 308 289 288 303 269 258 229 196 210 229 261 321 61 165
238 230 222 228 231 227 206 217 230 262 232 245 255 260 247 245 248 247 248 267 273 278 287 297 283 284 263 259 266 262 271 319 307 219 265 257 254 221 201 200 164 171 163 126 157
Height
3174 3173 3174 3175 3175 3174 3174 3174 3174 3174 3174 3173 3174 3174 3174 3175 3176 3177 3177 3178 3177 3177 3177 3178 3180 3182 3186 3188 3189 3188 3188 3187 3187 3187 3190 3190 3188 3186 3186 3186 3186 3183 3180 3179 3178
3173 3173 3173 3174 3174 3174 3174 3173 3173 3174 3173 3173 3173 3173 3174 3175 3176 3177 3179 3178 3178 3178 3178 3178 3180 3182 3186 3187 3188 3188 3188 3187 3188 3187 3187 3188 3184 3183 3184 3186 3185 3183 3182 3181 3179
3171 3171 3172 3172 3173 3172 3173 3172 3173 3173 3173 3172 3172 3172 3173 3174 3176 3176 3177 3178 3178 3178 3178 3178 3180 3181 3184 3186 3188 3188 3188 3188 3188 3188 3188 3186 3186 3186 3185 3185 3184 3183 3183 3182 3181
3168 3169 3170 3170 3171 3171 3171 3171 3172 3171 3171 3171 3171 3172 3172 3173 3176 3175 3176 3176 3177 3178 3178 3179 3180 3180 3182 3186 3187 3186 3186 3187 3186 3184 3186 3185 3185 3184 3183 3182 3183 3185 3184 3184 3182
3166 3167 3168 3168 3169 3169 3169 3170 3170 3170 3169 3169 3170 3170 3171 3172 3174 3174 3174 3175 3176 3177 3178 3178 3179 3180 3182 3185 3185 3185 3185 3184 3182 3181 3183 3181 3181 3183 3181 3180 3182 3182 3182 3182 3182
3163 3164 3165 3166 3166 3167 3167 3167 3168 3168 3167 3168 3168 3169 3170 3171 3171 3173 3173 3174 3175 3175 3176 3178 3179 3178 3181 3182 3184 3184 3182 3182 3181 3180 3180 3180 3181 3181 3180 3179 3180 3181 3182 3183 3183
3160 3161 3162 3163 3163 3164 3164 3165 3165 3165 3165 3165 3166 3167 3167 3170 3170 3171 3172 3173 3174 3174 3175 3176 3176 3177 3178 3181 3181 3181 3181 3180 3179 3178 3177 3177 3178 3178 3177 3179 3180 3181 3184 3186 3182
3156 3157 3158 3159 3160 3161 3161 3161 3162 3162 3162 3163 3163 3165 3165 3166 3168 3169 3170 3171 3173 3173 3173 3174 3174 3174 3176 3178 3180 3179 3179 3178 3175 3174 3173 3174 3175 3177 3176 3177 3175 3175 3176 3182 3181
3152 3153 3154 3156 3157 3157 3158 3158 3158 3159 3159 3160 3162 3162 3163 3164 3166 3167 3168 3169 3170 3172 3172 3172 3172 3172 3175 3175 3177 3178 3178 3175 3172 3171 3166 3169 3173 3173 3172 3176 3172 3170 3171 3173 3182
3149 3149 3151 3152 3154 3154 3154 3154 3155 3156 3157 3157 3158 3162 3161 3161 3162 3164 3165 3166 3168 3169 3170 3170 3170 3171 3172 3173 3174 3175 3176 3176 3172 3170 3167 3168 3171 3174 3171 3172 3168 3167 3168 3168 3168
3144 3145 3147 3149 3150 3150 3152 3153 3155 3154 3153 3154 3154 3156 3157 3158 3159 3161 3162 3163 3165 3166 3167 3168 3168 3168 3171 3171 3172 3171 3173 3173 3170 3169 3168 3167 3168 3169 3166 3169 3165 3166 3169 3169 3167
3140 3142 3144 3145 3146 3148 3148 3148 3150 3149 3149 3149 3150 3152 3153 3154 3155 3158 3160 3161 3162 3162 3164 3165 3164 3167 3167 3169 3170 3169 3169 3170 3168 3167 3166 3165 3168 3165 3162 3166 3164 3167 3167 3168 3166
3137 3138 3140 3142 3143 3144 3144 3144 3146 3145 3145 3147 3146 3148 3151 3152 3152 3154 3157 3159 3159 3160 3161 3161 3164 3163 3164 3165 3167 3168 3168 3167 3167 3164 3162 3161 3163 3162 3160 3163 3161 3165 3164 3162 3156
3132 3134 3136 3138 3141 3140 3141 3143 3144 3143 3143 3141 3141 3142 3146 3149 3148 3151 3154 3158 3157 3158 3160 3158 3159 3160 3161 3162 3164 3164 3166 3165 3164 3163 3160 3162 3162 3161 3158 3159 3157 3161 3160 3158 3156
3127 3129 3131 3134 3135 3136 3139 3141 3141 3143 3143 3139 3137 3138 3141 3143 3148 3147 3151 3152 3154 3157 3158 3155 3156 3158 3159 3160 3162 3161 3163 3163 3162 3161 3159 3160 3159 3157 3159 3156 3154 3158 3161 3159 3154
3123 3125 3127 3129 3131 3132 3134 3138 3140 3144 3137 3135 3134 3135 3137 3141 3144 3146 3147 3151 3153 3155 3154 3152 3154 3155 3155 3157 3158 3159 3159 3159 3159 3157 3157 3156 3155 3152 3153 3154 3156 3159 3162 3159 3158
3118 3120 3123 3125 3127 3128 3131 3135 3140 3137 3134 3134 3134 3134 3136 3138 3139 3142 3145 3147 3149 3152 3150 3150 3149 3150 3152 3152 3154 3155 3156 3156 3158 3157 3156 3153 3153 3150 3150 3152 3154 3159 3161 3161 3162
3111 3114 3117 3120 3122 3124 3127 3132 3132 3129 3129 3130 3130 3132 3133 3135 3136 3139 3141 3143 3146 3147 3148 3148 3145 3145 3147 3148 3150 3151 3154 3155 3160 3159 3153 3151 3149 3148 3149 3151 3152 3155 3158 3159 3158
3106 3108 3112 3114 3116 3119 3123 3124 3124 3126 3127 3126 3128 3130 3130 3132 3135 3136 3137 3138 3140 3142 3146 3145 3142 3141 3144 3147 3150 3148 3150 3152 3151 3151 3152 3149 3148 3149 3147 3148 3151 3154 3156 3156 3156
3101 3103 3106 3108 3111 3114 3117 3117 3120 3122 3123 3125 3126 3127 3128 3128 3132 3133 3133 3134 3135 3138 3139 3141 3141 3137 3139 3143 3140 3142 3148 3148 3147 3152 3152 3148 3146 3147 3147 3147 3150 3151 3155 3153 3154
3097 3098 3101 3103 3107 3110 3110 3113 3116 3121 3122 3122 3122 3123 3124 3126 3127 3127 3129 3133 3132 3133 3135 3137 3140 3133 3136 3139 3138 3139 3142 3143 3144 3145 3148 3151 3145 3145 3145 3144 3146 3150 3152 3156 3157
3093 3096 3098 3101 3105 3105 3105 3109 3113 3115 3120 3119 3119 3121 3121 3122 3121 3122 3123 3126 3126 3127 3129 3131 3132 3132 3131 3134 3137 3139 3139 3138 3138 3141 3143 3143 3145 3145 3146 3144 3145 3148 3149 3150 3155
3090 3092 3096 3100 3102 3103 3105 3106 3108 3110 3114 3116 3116 3117 3117 3120 3120 3119 3120 3123 3125 3125 3125 3126 3127 3130 3129 3132 3133 3132 3133 3134 3135 3136 3138 3139 3142 3141 3143 3144 3145 3145 3146 3147 3148
3090 3092 3094 3097 3100 3101 3102 3102 3103 3106 3106 3109 3111 3113 3114 3114 3117 3115 3117 3119 3119 3119 3119 3119 3120 3122 3126 3127 3131 3130 3130 3132 3131 3132 3133 3132 3134 3137 3139 3140 3141 3141 3142 3142 3143
3087 3088 3089 3093 3096 3096 3098 3100 3100 3101 3103 3106 3106 3108 3110 3111 3112 3112 3114 3116 3116 3117 3116 3118 3118 3117 3121 3124 3127 3127 3128 3127 3127 3129 3128 3129 3129 3132 3134 3137 3142 3142 3141 3137 3131
3086 3087 3088 3089 3091 3094 3097 3099 3099 3098 3099 3100 3101 3103 3107 3107 3109 3109 3111 3113 3112 3111 3112 3114 3115 3115 3117 3120 3123 3123 3125 3126 3122 3123 3124 3122 3124 3128 3133 3135 3137 3138 3135 3128 3133
3082 3083 3085 3086 3088 3091 3092 3090 3091 3090 3093 3095 3097 3097 3098 3101 3103 3106 3107 3108 3110 3110 3110 3112 3112 3113 3115 3118 3118 3121 3125 3125 3126 3125 3126 3118 3119 3122 3126 3131 3133 3134 3135 3135 3137